Location: Kawakawa
(35.3830°S, 174.0670°E)
Time: 04:41:26
(UTC+13:00)

Explorer 11/Cluster Stage 4 - Visible Passes

Search period start: 11 December 2019 00:00
Search period end: 21 December 2019 00:00
Orbit: 467 x 1259 km, 28.8° (Epoch: 09 December)

Date Brightness Start Highest point End Pass type
(mag) Time Alt. Az. Time Alt. Az. Time Alt. Az.
11 Dec 8.6 02:30:25 24° ENE 02:30:25 24° ENE 02:33:29 10° ENE visible
11 Dec 7.9 04:12:37 28° NW 04:15:01 34° NNW 04:22:05 10° NE visible
12 Dec 9.1 02:21:22 14° ENE 02:21:22 14° ENE 02:22:26 10° ENE visible
12 Dec 7.9 04:03:36 30° NNW 04:04:08 30° NNW 04:10:50 10° NE visible
12 Dec 8.3 22:24:48 10° NNW 22:25:02 11° NNW 22:25:02 11° NNW visible
13 Dec 8.3 03:54:53 25° N 03:54:53 25° N 03:59:31 10° NE visible
13 Dec 7.6 22:14:07 10° NNW 22:15:58 19° N 22:15:58 19° N visible
14 Dec 8.9 03:46:23 15° NNE 03:46:23 15° NNE 03:48:07 10° NNE visible
14 Dec 7.1 22:03:29 10° NW 22:06:38 24° NNE 22:06:38 24° NNE visible
15 Dec 7.0 21:52:51 10° NW 21:56:12 26° NNE 21:57:05 24° NE visible
16 Dec 6.8 21:42:15 10° NW 21:45:33 27° NNE 21:47:21 20° NE visible
16 Dec 8.6 23:29:28 10° WNW 23:29:31 10° WNW 23:29:31 10° WNW visible
17 Dec 6.7 21:31:39 10° NW 21:34:56 28° N 21:37:28 16° ENE visible
17 Dec 8.2 23:19:01 10° WNW 23:19:37 14° WNW 23:19:37 14° WNW visible
18 Dec 6.7 21:21:05 10° NW 21:24:20 29° N 21:27:29 12° ENE visible
18 Dec 7.9 23:08:35 10° WNW 23:09:38 17° WNW 23:09:38 17° WNW visible
19 Dec 6.6 21:10:30 10° NW 21:13:44 29° N 21:17:14 10° ENE visible
19 Dec 7.7 22:58:09 10° WNW 22:59:33 19° NW 22:59:33 19° NW visible
20 Dec 7.5 22:47:45 10° WNW 22:49:27 20° NW 22:49:27 20° NW visible
